Location: Landeleau
(48.2273°N, 3.7285°W)
Time: 02:03:01
(UTC+00:00)

STARLINK-1143 - Pass Details

Date: 30 March 2020
Orbit: 549 x 550 km, 53.0° (Epoch: 26 May)

Event Time Altitude Azimuth Distance (km) Brightness Sun altitude
Rises 19:17:44 0° 229° (SW) 2,710 7.7 -6.5°
Reaches altitude 10° 19:19:59 10° 225° (SW) 1,819 6.7 -6.9°
Maximum altitude 19:24:02 58° 147° (SSE) 647 3.7 -7.5°
Drops below altitude 10° 19:28:07 10° 68° (ENE) 1,828 5.8 -8.2°
Enters shadow 19:29:20 - 66° (ENE) 2,302 6.3 -8.4°
